Location: Newark
(41.8922°N, 9.0050°E)
Time: 00:31:12
(UTC+00:00)

ISS - Pass Details

Date: 31 January 2020
Orbit: 415 x 423 km, 51.6° (Epoch: 25 February)

Event Time Altitude Azimuth Distance (km) Brightness Sun altitude
Rises 18:16:03 0° 306° (NW) 2,380 0.8 -18.6°
Reaches altitude 10° 18:18:35 10° 325° (NW) 1,513 -0.6 -19.1°
Enters shadow 18:20:35 19° 0° (N) 1,094 -1.7 -19.4°
